Zurück zum Katalog

NOAA 16 DEB

AktivPO
NORAD 41365·DEBRIS·🇺🇸 United States

Gestartet Sep 21, 2000 von Vandenberg Space Force Base

Loading…

Nächste Überflüge (nächste 24 Stunden)

TLE

AktuellSource: Space-Track

Epoche: Sep 13, 2026, 18:34 UTC

1 41365U 00055JJ  26256.77387372  .00006188  00000-0  13108-2 0  9992
2 41365  98.9270  92.5534 0023911 198.2087 161.8257 14.59440082552510

Verfolge NOAA 16 DEB in Echtzeit mit AllMySat

Download on the App Store